Location: Favalello
(42.2939°N, 9.2706°E)
Time: 18:22:39
(UTC+00:00)

USA 267 - Pass Details

Date: 06 December 2019
Orbit: 1100 x 1107 km, 123.0° (Epoch: 17 January)

Event Time Altitude Azimuth Distance (km) Brightness Sun altitude
Rises 17:12:38 0° 152° (SSE) 3,901 6.0 -14.7°
Reaches altitude 10° 17:15:13 10° 158° (SSE) 2,947 5.5 -15.2°
Maximum altitude 17:21:24 45° 230° (SW) 1,459 4.4 -16.3°
Drops below altitude 10° 17:27:37 10° 301° (WNW) 2,961 6.1 -17.4°
Sets 17:30:15 0° 308° (NW) 3,922 6.7 -17.8°
